Highgate, VT

2:57 PM EDT on September 18, 2019 (GMT -0400)
Franklin County State

Weather History for KFSO - August, 2019

Change the Weather History Date:

Thursday, August 22, 2019

  Actual Average (WUND) Record (WUND)
Temperature  
Mean Temperature 72 °F -  
Max Temperature 79 °F - - (-1)
Min Temperature 64 °F - - (-1)
Cooling Degree Days 6    
Growing Degree Days 22 (Base 50)    
Moisture  
Dew Point 66 °F    
Average Humidity 80    
Maximum Humidity 96    
Minimum Humidity 53    
Precipitation  
Precipitation 0.00 in - - ()
Sea Level Pressure  
Sea Level Pressure 29.81 in    
Wind  
Wind Speed 5 mph (SW)    
Max Wind Speed 9 mph    
Max Gust Speed -    
Visibility 10 miles    
Events      
Averages and records for this station are not official NWS values.
T = Trace of Precipitation, MM = Missing Value Source: NWS Daily Summary

Daily Weather History Graph

Daily Weather History Graph

Search for Another Location

Airport or City:

Astronomy

Aug. 22, 2019 Rise Set
Actual Time 6:02 AM EDT 7:47 PM EDT
Civil Twilight 5:31 AM EDT 8:18 PM EDT
Nautical Twilight 4:53 AM EDT 8:56 PM EDT
Astronomical Twilight 4:11 AM EDT 9:37 PM EDT
Moon 11:17 PM EDT (8/22) 12:52 PM EDT (8/22)
Length of Visible Light 14h 47m
Length of Day
13h 45m
Waning Gibbous, 60% of the Moon is Illuminated
Aug 22
Waning Gibbous
Aug 23
Last Quarter
Aug 30
New
Sep 5
First Quarter
Sep 14
Full

Hourly Weather History & Observations

Time (EDT) Temp. Dew Point Humidity Pressure Visibility Wind Dir Wind Speed Gust Speed Precip Events Conditions
12:16 AM 70.3 °F 69.1 °F 96% 29.77 in 10.0 mi South 6.9 mph - N/A   Mostly Cloudy
12:36 AM 70.7 °F 69.3 °F 95% 29.77 in 10.0 mi South 6.9 mph - N/A   Mostly Cloudy
12:56 AM 70.7 °F 69.4 °F 96% 29.78 in 10.0 mi South 6.9 mph - N/A   Scattered Clouds
1:15 AM 70.7 °F 69.3 °F 95% 29.77 in 10.0 mi South 6.9 mph - N/A   Clear
1:36 AM 70.5 °F 69.1 °F 95% 29.77 in 10.0 mi South 5.8 mph - N/A   Scattered Clouds
1:56 AM 70.3 °F 69.1 °F 96% 29.76 in 10.0 mi South 6.9 mph - N/A   Mostly Cloudy
2:15 AM 70.3 °F 68.9 °F 95% 29.76 in 10.0 mi South 6.9 mph - N/A   Mostly Cloudy
2:35 AM 70.3 °F 68.9 °F 95% 29.76 in 10.0 mi South 6.9 mph - N/A   Scattered Clouds
2:56 AM 70.7 °F 69.4 °F 96% 29.75 in 10.0 mi South 5.8 mph - N/A   Mostly Cloudy
3:16 AM 70.9 °F 69.4 °F 95% 29.76 in 10.0 mi Calm Calm - N/A   Overcast
3:36 AM 71.1 °F 69.8 °F 96% 29.76 in 10.0 mi South 5.8 mph - N/A   Mostly Cloudy
3:55 AM 71.1 °F 69.3 °F 94% 29.76 in 10.0 mi South 5.8 mph - N/A   Mostly Cloudy
4:15 AM 71.1 °F 69.3 °F 94% 29.76 in 10.0 mi South 4.6 mph - N/A   Mostly Cloudy
4:35 AM 70.9 °F 69.3 °F 95% 29.75 in 10.0 mi South 5.8 mph - N/A   Mostly Cloudy
4:56 AM 70.9 °F 69.6 °F 96% 29.75 in 10.0 mi South 4.6 mph - N/A   Scattered Clouds
5:16 AM 71.1 °F 69.8 °F 96% 29.76 in 10.0 mi South 4.6 mph - N/A   Mostly Cloudy
5:35 AM 71.1 °F 69.3 °F 94% 29.75 in 10.0 mi South 5.8 mph - N/A   Mostly Cloudy
5:55 AM 70.9 °F 69.3 °F 95% 29.75 in 10.0 mi SSW 3.5 mph - N/A   Mostly Cloudy
6:16 AM 70.7 °F 69.3 °F 95% 29.75 in 10.0 mi South 4.6 mph - N/A   Mostly Cloudy
6:35 AM 70.7 °F 69.4 °F 96% 29.77 in 10.0 mi SSW 4.6 mph - N/A   Mostly Cloudy
6:55 AM 71.1 °F 69.8 °F 96% 29.76 in 10.0 mi South 5.8 mph - N/A   Overcast
7:16 AM 71.4 °F 69.8 °F 95% 29.77 in 10.0 mi SSW 5.8 mph - N/A   Overcast
7:36 AM 71.6 °F 69.8 °F 94% 29.77 in 10.0 mi SSW 4.6 mph - N/A   Overcast
7:55 AM 71.8 °F 70.0 °F 94% 29.77 in 10.0 mi South 5.8 mph - N/A   Mostly Cloudy
8:16 AM 73.0 °F 70.7 °F 92% 29.77 in 10.0 mi South 4.6 mph - N/A   Mostly Cloudy
8:35 AM 73.4 °F 70.9 °F 92% 29.77 in 10.0 mi South 5.8 mph - N/A   Mostly Cloudy
8:56 AM 73.4 °F 70.7 °F 91% 29.78 in 10.0 mi SW 3.5 mph - N/A   Overcast
9:15 AM 74.3 °F 71.1 °F 90% 29.79 in 10.0 mi SSW 3.5 mph - N/A   Overcast
9:35 AM 75.0 °F 71.6 °F 89% 29.79 in 10.0 mi SSW 4.6 mph - N/A   Overcast
9:55 AM 77.9 °F 71.4 °F 80% 29.79 in 10.0 mi SW 3.5 mph - N/A   Mostly Cloudy
10:15 AM 77.7 °F 71.4 °F 81% 29.79 in 10.0 mi SW 9.2 mph - N/A   Mostly Cloudy
10:35 AM 77.7 °F 70.0 °F 77% 29.79 in 10.0 mi SW 4.6 mph - N/A   Mostly Cloudy
11:16 AM 77.2 °F 70.3 °F 79% 29.80 in 10.0 mi Calm Calm - N/A   Overcast
11:35 AM 76.8 °F 70.0 °F 79% 29.80 in 10.0 mi Calm Calm - N/A   Mostly Cloudy
11:56 AM 77.7 °F 65.8 °F 67% 29.81 in 10.0 mi West 5.8 mph - N/A   Scattered Clouds
12:15 PM 77.2 °F 64.4 °F 65% 29.81 in 10.0 mi WNW 5.8 mph - N/A   Clear
12:36 PM 77.0 °F 64.8 °F 66% 29.82 in 10.0 mi West 8.1 mph - N/A   Clear
12:55 PM 77.2 °F 63.3 °F 62% 29.82 in 10.0 mi West 3.5 mph - N/A   Clear
1:16 PM 75.9 °F 64.6 °F 68% 29.83 in 10.0 mi Calm Calm - N/A   Clear
1:35 PM 75.7 °F 65.3 °F 70% 29.83 in 10.0 mi West 3.5 mph - N/A   Clear
1:56 PM 75.2 °F 64.0 °F 68% 29.84 in 10.0 mi West 5.8 mph - N/A   Clear
2:16 PM 76.1 °F 64.2 °F 67% 29.84 in 10.0 mi West 3.5 mph - N/A   Clear
2:35 PM 77.0 °F 64.0 °F 64% 29.84 in 10.0 mi WSW 4.6 mph - N/A   Clear
2:56 PM 78.3 °F 63.9 °F 61% 29.83 in 10.0 mi West 4.6 mph - N/A   Clear
3:16 PM 79.2 °F 63.0 °F 57% 29.83 in 10.0 mi West 4.6 mph - N/A   Clear
3:35 PM 79.7 °F 62.1 °F 55% 29.83 in 10.0 mi WSW 4.6 mph - N/A   Clear
3:55 PM 78.8 °F 60.1 °F 53% 29.83 in 10.0 mi SSW 3.5 mph - N/A   Scattered Clouds
4:16 PM 78.1 °F 60.6 °F 55% 29.83 in 10.0 mi WSW 4.6 mph - N/A   Scattered Clouds
4:35 PM 78.1 °F 61.9 °F 57% 29.82 in 10.0 mi Calm Calm - N/A   Mostly Cloudy
4:56 PM 76.8 °F 60.3 °F 56% 29.84 in 10.0 mi West 4.6 mph - N/A   Overcast
5:15 PM 76.8 °F 61.9 °F 60% 29.84 in 10.0 mi West 3.5 mph - N/A   Overcast
5:36 PM 75.9 °F 61.9 °F 62% 29.84 in 10.0 mi WSW 4.6 mph - N/A   Scattered Clouds
5:56 PM 75.2 °F 61.9 °F 63% 29.84 in 10.0 mi Calm Calm - N/A   Clear
6:15 PM 75.4 °F 61.5 °F 62% 29.84 in 10.0 mi West 3.5 mph - N/A   Clear
6:35 PM 73.2 °F 61.3 °F 66% 29.84 in 10.0 mi Calm Calm - N/A   Clear
6:55 PM 72.5 °F 61.7 °F 69% 29.84 in 10.0 mi Calm Calm - N/A   Clear
7:16 PM 73.0 °F 61.7 °F 67% 29.84 in 10.0 mi Calm Calm - N/A   Scattered Clouds
7:35 PM 72.0 °F 61.5 °F 70% 29.85 in 10.0 mi West 3.5 mph - N/A   Mostly Cloudy
7:56 PM 70.7 °F 61.9 °F 74% 29.85 in 10.0 mi Calm Calm - N/A   Scattered Clouds
8:15 PM 68.5 °F 61.7 °F 79% 29.85 in 10.0 mi Calm Calm - N/A   Clear
8:36 PM 68.5 °F 60.3 °F 75% 29.86 in 10.0 mi Calm Calm - N/A   Clear
8:55 PM 68.2 °F 60.1 °F 75% 29.87 in 10.0 mi Calm Calm - N/A   Clear
9:16 PM 68.7 °F 59.4 °F 72% 29.87 in 10.0 mi Calm Calm - N/A   Scattered Clouds
9:36 PM 66.2 °F 60.4 °F 82% 29.88 in 10.0 mi Calm Calm - N/A   Clear
9:55 PM 64.9 °F 60.8 °F 86% 29.88 in 10.0 mi Calm Calm - N/A   Clear
10:15 PM 64.6 °F 61.0 °F 88% 29.88 in 10.0 mi Calm Calm - N/A   Clear
10:35 PM 64.2 °F 61.2 °F 90% 29.88 in 10.0 mi Calm Calm - N/A   Mostly Cloudy
10:55 PM 64.9 °F 62.2 °F 91% 29.89 in 10.0 mi Calm Calm - N/A   Overcast
11:16 PM 65.8 °F 59.9 °F 81% 29.89 in 10.0 mi Calm Calm - N/A   Overcast
11:35 PM 67.1 °F 58.1 °F 73% 29.89 in 10.0 mi Calm Calm - N/A   Overcast
11:55 PM 66.6 °F 57.0 °F 71% 29.89 in 10.0 mi West 3.5 mph - N/A   Mostly Cloudy